TimeMDT,TemperatureF,Dew PointF,Humidity,Sea Level PressureIn,VisibilityMPH,Wind Direction,Wind SpeedMPH,Gust SpeedMPH,PrecipitationIn,Events,Conditions,WindDirDegrees,DateUTC
12:53 AM,34.0,19.9,56,30.12,10.0,Calm,Calm,-,N/A,,Clear,0,2013-03-11 06:53:00
1:53 AM,32.0,19.9,61,30.12,10.0,North,3.5,-,N/A,,Clear,350,2013-03-11 07:53:00
2:53 AM,30.0,18.0,61,30.12,10.0,Calm,Calm,-,N/A,,Clear,0,2013-03-11 08:53:00
3:53 AM,28.9,19.0,67,30.13,10.0,Calm,Calm,-,N/A,,Clear,0,2013-03-11 09:53:00
4:53 AM,28.0,19.0,69,30.12,10.0,Calm,Calm,-,N/A,,Clear,0,2013-03-11 10:53:00
5:53 AM,28.0,18.0,66,30.13,10.0,NW,4.6,-,N/A,,Clear,320,2013-03-11 11:53:00
6:53 AM,27.0,18.0,69,30.14,10.0,Calm,Calm,-,N/A,,Clear,0,2013-03-11 12:53:00
7:53 AM,25.0,16.0,69,30.17,10.0,Calm,Calm,-,N/A,,Clear,0,2013-03-11 13:53:00
8:53 AM,35.1,21.0,57,30.15,10.0,SW,3.5,-,N/A,,Clear,230,2013-03-11 14:53:00
9:53 AM,42.1,21.9,45,30.16,10.0,Calm,Calm,-,N/A,,Clear,0,2013-03-11 15:53:00
10:53 AM,50.0,24.1,36,30.14,10.0,Calm,Calm,-,N/A,,Clear,0,2013-03-11 16:53:00
11:53 AM,55.9,23.0,28,30.13,10.0,SW,8.1,-,N/A,,Clear,230,2013-03-11 17:53:00
12:53 PM,59.0,21.0,23,30.10,10.0,Variable,5.8,-,N/A,,Clear,0,2013-03-11 18:53:00
1:53 PM,61.0,19.0,20,30.07,10.0,Variable,4.6,-,N/A,,Clear,0,2013-03-11 19:53:00
2:53 PM,63.0,17.1,17,30.03,10.0,West,6.9,18.4,N/A,,Clear,260,2013-03-11 20:53:00
3:53 PM,66.0,15.1,14,29.99,10.0,West,11.5,18.4,N/A,,Clear,270,2013-03-11 21:53:00
5:53 PM,66.0,14.0,13,29.96,10.0,WSW,12.7,19.6,N/A,,Clear,250,2013-03-11 23:53:00
6:53 PM,63.0,12.0,14,29.97,10.0,WSW,11.5,-,N/A,,Clear,250,2013-03-12 00:53:00
7:53 PM,59.0,10.9,15,29.99,10.0,West,12.7,-,N/A,,Clear,260,2013-03-12 01:53:00
8:53 PM,55.0,12.0,18,30.00,10.0,West,10.4,-,N/A,,Clear,260,2013-03-12 02:53:00
9:53 PM,50.0,12.9,23,30.00,10.0,NW,6.9,-,N/A,,Clear,310,2013-03-12 03:53:00
10:53 PM,48.0,17.1,29,30.00,10.0,WNW,6.9,-,N/A,,Clear,300,2013-03-12 04:53:00
11:53 PM,45.0,15.1,30,29.99,10.0,SSE,5.8,-,N/A,,Clear,150,2013-03-12 05:53:00